�_�ʐ�͌���@�\�w���ɂ��Y���u�C�̈ړ���,,,,,,,,,,
�@,Time,Time int.,,Lat.,,Long.,,Direction,Speed,
Date(yyyy/mm/dd),(hh:mm),(hour),(min),(deg),(min),(deg),(min),(deg),(m/s),(knots)
2005/09/01,9:40,0,,36,45.972,137,13.290,,,
2005/09/01,9:45,0,5,36,46.002,137,13.272,336.08 ,0.22 ,0.43 
2005/09/01,9:50,0,5,36,46.020,137,13.260,334.96 ,0.14 ,0.27 
2005/09/01,10:00,0,10,36,46.068,137,13.218,327.64 ,0.19 ,0.38 
2005/09/01,10:05,0,5,36,46.092,137,13.188,317.85 ,0.22 ,0.43 
2005/09/01,10:10,0,5,36,46.092,137,13.164,277.90 ,0.12 ,0.23 
2005/09/01,10:15,0,5,36,46.122,137,13.140,329.40 ,0.23 ,0.45 
2005/09/01,10:20,0,5,36,46.122,137,13.110,276.33 ,0.15 ,0.29 
2005/09/01,10:25,0,5,36,46.134,137,13.092,315.38 ,0.13 ,0.25 
2005/09/01,10:30,0,5,36,46.140,137,13.062,289.77 ,0.16 ,0.31 
2005/09/01,10:35,0,5,36,46.146,137,13.032,289.77 ,0.16 ,0.31 
2005/09/01,10:40,0,5,36,46.152,137,13.014,300.94 ,0.10 ,0.20 
2005/09/01,10:45,0,5,36,46.152,137,12.996,280.49 ,0.09 ,0.18 
2005/09/01,10:50,0,5,36,46.164,137,12.954,289.52 ,0.22 ,0.43 
2005/09/01,10:55,0,5,36,46.170,137,12.936,292.48 ,0.10 ,0.19 
2005/09/01,11:00,0,5,36,46.182,137,12.906,296.41 ,0.17 ,0.32 
2005/09/01,11:05,0,5,36,46.170,137,12.870,247.47 ,0.19 ,0.38 
2005/09/01,11:10,0,5,36,46.176,137,12.858,301.83 ,0.07 ,0.14 
2005/09/01,11:15,0,5,36,46.188,137,12.822,292.48 ,0.19 ,0.38 
2005/09/01,11:30,0,15,36,46.176,137,12.762,256.01 ,0.10 ,0.20 


�A,Time,Time int.,,Lat.,,Long.,,Direction,Speed,
Date(yyyy/mm/dd),(hh:mm),(hour),(min),(deg),(min),(deg),(min),(deg),(m/s),(knots)
2005/09/01,11:45,0,,36,45.966,137,13.494,,,
2005/09/01,11:50,0,5,36,46.026,137,13.482,350.82 ,0.37 ,0.73 
2005/09/01,11:55,0,5,36,46.068,137,13.470,347.02 ,0.27 ,0.52 
2005/09/01,12:00,0,5,36,46.116,137,13.446,338.05 ,0.32 ,0.62 
2005/09/01,12:05,0,5,36,46.164,137,13.434,348.59 ,0.30 ,0.59 
2005/09/01,12:10,0,5,36,46.206,137,13.410,335.28 ,0.28 ,0.55 
2005/09/01,12:15,0,5,36,46.242,137,13.386,331.76 ,0.25 ,0.49 
2005/09/01,12:20,0,5,36,46.272,137,13.350,315.97 ,0.26 ,0.50 
2005/09/01,12:25,0,5,36,46.290,137,13.338,331.76 ,0.13 ,0.24 
2005/09/01,12:30,0,5,36,46.326,137,13.320,338.05 ,0.24 ,0.47 
2005/09/01,12:35,0,5,36,46.362,137,13.296,336.98 ,0.24 ,0.47 
2005/09/01,12:40,0,5,36,46.392,137,13.284,349.36 ,0.19 ,0.37 
2005/09/01,12:45,0,5,36,46.422,137,13.260,332.99 ,0.21 ,0.40 
2005/09/01,12:50,0,5,36,46.440,137,13.230,311.81 ,0.17 ,0.32 
2005/09/01,12:55,0,5,36,46.476,137,13.212,343.79 ,0.23 ,0.45 
2005/09/01,13:00,0,5,36,46.482,137,13.188,291.41 ,0.10 ,0.20 
2005/09/01,13:05,0,5,36,46.518,137,13.158,330.79 ,0.25 ,0.49 
2005/09/01,13:10,0,5,36,46.536,137,13.128,311.81 ,0.17 ,0.32 
2005/09/01,13:15,0,5,36,46.566,137,13.098,326.15 ,0.22 ,0.43 
2005/09/01,13:20,0,5,36,46.596,137,13.062,320.25 ,0.24 ,0.47 
2005/09/01,13:30,0,10,36,46.632,137,13.020,324.43 ,0.14 ,0.27 
2005/09/01,13:35,0,5,36,46.656,137,12.984,313.88 ,0.21 ,0.41 
2005/09/01,13:40,0,5,36,46.674,137,12.960,319.66 ,0.15 ,0.28 
2005/09/01,13:45,0,5,36,46.698,137,12.930,320.02 ,0.19 ,0.38 
2005/09/01,13:50,0,5,36,46.698,137,12.912,269.96 ,0.06 ,0.13 


�B,Time,Time int.,,Lat.,,Long.,,Direction,Speed,
Date(yyyy/mm/dd),(hh:mm),(hour),(min),(deg),(min),(deg),(min),(deg),(m/s),(knots)
2005/09/01,9:40,0,,36,45.972,137,13.518,,,
2005/09/01,9:45,0,5,36,46.020,137,13.548,25.43 ,0.35 ,0.67 
2005/09/01,9:50,0,5,36,46.014,137,13.536,251.04 ,0.06 ,0.12 
2005/09/01,9:55,0,5,36,46.026,137,13.566,58.64 ,0.17 ,0.34 
2005/09/01,10:00,0,5,36,46.056,137,13.560,351.57 ,0.20 ,0.40 
2005/09/01,10:10,0,10,36,46.062,137,13.572,40.29 ,0.05 ,0.09 
2005/09/01,10:15,0,5,36,46.074,137,13.572,359.97 ,0.09 ,0.18 
2005/09/01,10:20,0,5,36,46.080,137,13.572,359.98 ,0.05 ,0.10 
2005/09/01,10:25,0,5,36,46.092,137,13.578,18.16 ,0.10 ,0.19 
2005/09/01,10:30,0,5,36,46.098,137,13.572,330.92 ,0.06 ,0.12 
2005/09/01,10:40,0,10,36,46.122,137,13.566,350.64 ,0.09 ,0.18 
2005/09/01,10:45,0,5,36,46.116,137,13.578,121.82 ,0.07 ,0.14 
2005/09/01,10:50,0,5,36,46.158,137,13.560,340.94 ,0.27 ,0.53 
2005/09/01,10:55,0,5,36,46.158,137,13.554,269.96 ,0.03 ,0.06 
2005/09/01,11:00,0,5,36,46.188,137,13.572,25.73 ,0.21 ,0.40 
2005/09/01,11:05,0,5,36,46.224,137,13.548,331.76 ,0.25 ,0.49 
2005/09/01,11:10,0,5,36,46.230,137,13.554,38.78 ,0.05 ,0.09 
2005/09/01,11:15,0,5,36,46.236,137,13.578,72.70 ,0.12 ,0.24 
2005/09/01,11:20,0,5,36,46.266,137,13.566,342.13 ,0.19 ,0.38 
2005/09/01,11:25,0,5,36,46.290,137,13.566,359.96 ,0.15 ,0.29 
2005/09/01,11:30,0,5,36,46.338,137,13.542,338.05 ,0.32 ,0.62 
2005/09/01,11:35,0,5,36,46.362,137,13.548,11.34 ,0.15 ,0.29 


�C,Time,Time int.,,Lat.,,Long.,,Direction,Speed,
Date(yyyy/mm/dd),(hh:mm),(hour),(min),(deg),(min),(deg),(min),(deg),(m/s),(knots)
2005/09/01,11:50,0,,36,45.948,137,13.182,,,
2005/09/01,11:55,0,5,36,45.978,137,13.152,321.15 ,0.24 ,0.46 
2005/09/01,12:00,0,5,36,45.990,137,13.140,321.15 ,0.09 ,0.18 
2005/09/01,12:15,0,15,36,46.086,137,13.038,319.44 ,0.26 ,0.50 
2005/09/01,12:20,0,5,36,46.104,137,13.002,301.83 ,0.21 ,0.41 
2005/09/01,12:25,0,5,36,46.098,137,12.996,218.79 ,0.05 ,0.09 
2005/09/01,12:30,0,5,36,46.122,137,12.960,309.62 ,0.23 ,0.45 
2005/09/01,12:35,0,5,36,46.122,137,12.942,269.97 ,0.09 ,0.17 
2005/09/01,12:40,0,5,36,46.146,137,12.912,320.02 ,0.19 ,0.38 
2005/09/01,12:45,0,5,36,46.146,137,12.882,269.97 ,0.12 ,0.24 
2005/09/01,12:50,0,5,36,46.134,137,12.864,221.01 ,0.10 ,0.19 
2005/09/01,12:55,0,5,36,46.146,137,12.834,300.80 ,0.14 ,0.28 
2005/09/01,13:05,0,5,36,46.152,137,12.786,279.81 ,0.22 ,0.42 
2005/09/01,13:10,0,5,36,46.146,137,12.762,248.52 ,0.10 ,0.20 
2005/09/01,13:15,0,5,36,46.140,137,12.738,248.52 ,0.10 ,0.20 
2005/09/01,13:20,0,5,36,46.134,137,12.714,248.52 ,0.10 ,0.20 
2005/09/01,13:25,0,5,36,46.122,137,12.690,231.81 ,0.12 ,0.23 
2005/09/01,13:30,0,5,36,46.122,137,12.666,269.97 ,0.09 ,0.18 
2005/09/01,13:40,0,10,36,46.044,137,12.570,221.54 ,0.32 ,0.62 
